When you browse on this site, cookies collect data to enhance your experience and personalize the content and advertising you see.
Visit our Privacy Policy to learn more. By continuing to use the site, you agree to this use of cookies and data.
  • In Slovakia
  • List of Countries
  • For 7 days
  • Water Temperature
  • Weather Map
  • Weather Widgets
  • user-avatar
    Login

    Hourly Weather Haradok

    Today, 25 August, Sunday

    Time Temperature Precipitation Wind Pressure Humidity
    00:00 +15°C° 0 mm 1 mps 756 mmHg 92%
    01:00 +15°C° 0 mm 1 mps 756 mmHg 92%
    02:00 +14°C° 0 mm 1 mps 757 mmHg 93%
    03:00 +14°C° 0 mm 1 mps 757 mmHg 93%
    04:00 +14°C° 0 mm 1 mps 757 mmHg 93%
    05:00 +13°C° 0 mm 1 mps 757 mmHg 93%
    06:00 +15°C° 0 mm 1 mps 757 mmHg 88%
    07:00 +18°C° 0 mm 1 mps 757 mmHg 82%
    08:00 +19°C° 0 mm 1 mps 758 mmHg 76%
    09:00 +21°C° 0 mm 1 mps 758 mmHg 70%
    10:00 +22°C° 0 mm 1 mps 758 mmHg 64%
    11:00 +24°C° 0 mm 1 mps 758 mmHg 59%
    12:00 +24°C° 0 mm 1 mps 758 mmHg 56%
    13:00 +24°C° 0 mm 1 mps 758 mmHg 54%
    14:00 +24°C° 0 mm 1 mps 758 mmHg 52%
    15:00 +24°C° 0 mm 1 mps 758 mmHg 56%
    16:00 +24°C° 0 mm 1 mps 758 mmHg 60%
    17:00 +23°C° 0 mm 1 mps 757 mmHg 64%
    18:00 +21°C° 0 mm 1 mps 758 mmHg 69%
    19:00 +19°C° 0 mm 2 mps 758 mmHg 74%
    20:00 +17°C° 0 mm 2 mps 758 mmHg 78%
    21:00 +16°C° 0 mm 2 mps 758 mmHg 80%
    22:00 +15°C° 0 mm 2 mps 758 mmHg 81%
    23:00 +14°C° 0 mm 2 mps 758 mmHg 83%

    Tomorrow, 26 August, Monday

    Time Temperature Precipitation Wind Pressure Humidity
    00:00 +14°C° 0 mm 1 mps 758 mmHg 84%
    01:00 +14°C° 0 mm 1 mps 758 mmHg 86%
    02:00 +14°C° 0 mm 1 mps 758 mmHg 87%
    03:00 +13°C° 0 mm 1 mps 758 mmHg 89%
    04:00 +13°C° 0 mm 1 mps 758 mmHg 90%
    05:00 +13°C° 0 mm 1 mps 758 mmHg 92%
    06:00 +15°C° 0 mm 1 mps 758 mmHg 86%
    07:00 +16°C° 0 mm 1 mps 758 mmHg 81%
    08:00 +19°C° 0 mm 1 mps 758 mmHg 76%
    09:00 +20°C° 0 mm 2 mps 758 mmHg 71%
    10:00 +21°C° 0 mm 2 mps 758 mmHg 67%
    11:00 +24°C° 0 mm 2 mps 757 mmHg 62%
    12:00 +24°C° 0 mm 2 mps 757 mmHg 61%
    13:00 +25°C° 0 mm 2 mps 757 mmHg 60%
    14:00 +25°C° 0 mm 3 mps 757 mmHg 59%
    15:00 +25°C° 0 mm 2 mps 757 mmHg 62%
    16:00 +25°C° 0 mm 2 mps 756 mmHg 65%
    17:00 +25°C° 0 mm 2 mps 756 mmHg 68%
    18:00 +23°C° 0 mm 2 mps 756 mmHg 73%
    19:00 +21°C° 0 mm 1 mps 755 mmHg 79%
    20:00 +19°C° 0 mm 1 mps 755 mmHg 85%
    21:00 +19°C° 0 mm 1 mps 755 mmHg 86%
    22:00 +18°C° 0 mm 2 mps 755 mmHg 88%
    23:00 +17°C° 0 mm 2 mps 755 mmHg 89%

    Day after tomorrow, 27 August, Tuesday

    Time Temperature Precipitation Wind Pressure Humidity
    00:00 +17°C° 0 mm 2 mps 755 mmHg 91%
    01:00 +17°C° 0 mm 2 mps 755 mmHg 93%
    02:00 +16°C° 0 mm 2 mps 755 mmHg 94%
    03:00 +16°C° 0 mm 2 mps 755 mmHg 95%
    04:00 +16°C° 0 mm 2 mps 755 mmHg 95%
    05:00 +16°C° 0 mm 2 mps 755 mmHg 96%
    06:00 +17°C° 0 mm 2 mps 755 mmHg 91%
    07:00 +18°C° 0 mm 2 mps 755 mmHg 86%
    08:00 +19°C° 0 mm 2 mps 755 mmHg 81%
    09:00 +21°C° 0 mm 2 mps 755 mmHg 75%
    10:00 +22°C° 0 mm 3 mps 755 mmHg 68%
    11:00 +24°C° 0 mm 3 mps 755 mmHg 62%
    12:00 +25°C° 0 mm 3 mps 755 mmHg 60%
    13:00 +25°C° 0 mm 3 mps 755 mmHg 57%
    14:00 +26°C° 0 mm 3 mps 755 mmHg 55%
    15:00 +26°C° 0 mm 3 mps 755 mmHg 58%
    16:00 +25°C° 0 mm 2 mps 755 mmHg 62%
    17:00 +25°C° 0 mm 2 mps 755 mmHg 66%
    18:00 +23°C° 0 mm 2 mps 755 mmHg 71%
    19:00 +20°C° 0 mm 2 mps 755 mmHg 77%
    20:00 +18°C° 0 mm 2 mps 755 mmHg 82%
    21:00 +17°C° 0 mm 2 mps 756 mmHg 82%
    22:00 +16°C° 0 mm 2 mps 756 mmHg 82%
    23:00 +15°C° 0 mm 2 mps 756 mmHg 82%

    28 August, Wednesday

    Time Temperature Precipitation Wind Pressure Humidity
    00:00 +15°C° 0 mm 2 mps 756 mmHg 83%
    01:00 +14°C° 0 mm 2 mps 756 mmHg 84%
    02:00 +13°C° 0 mm 1 mps 756 mmHg 85%
    03:00 +13°C° 0 mm 2 mps 756 mmHg 87%
    04:00 +12°C° 0 mm 2 mps 756 mmHg 88%
    05:00 +12°C° 0 mm 2 mps 757 mmHg 90%
    06:00 +14°C° 0 mm 2 mps 757 mmHg 86%
    07:00 +15°C° 0 mm 2 mps 757 mmHg 82%
    08:00 +17°C° 0 mm 2 mps 757 mmHg 77%
    09:00 +18°C° 0 mm 2 mps 757 mmHg 72%
    10:00 +19°C° 0 mm 2 mps 757 mmHg 67%
    11:00 +21°C° 0 mm 2 mps 757 mmHg 62%
    12:00 +21°C° 0 mm 3 mps 757 mmHg 60%
    13:00 +21°C° 0 mm 3 mps 757 mmHg 58%
    14:00 +22°C° 0 mm 3 mps 757 mmHg 57%
    15:00 +21°C° 0 mm 2 mps 757 mmHg 59%
    16:00 +21°C° 0 mm 2 mps 757 mmHg 61%
    17:00 +20°C° 0 mm 2 mps 756 mmHg 64%
    18:00 +19°C° 0 mm 2 mps 757 mmHg 68%
    19:00 +17°C° 0 mm 2 mps 757 mmHg 72%
    20:00 +15°C° 0 mm 2 mps 757 mmHg 76%
    21:00 +14°C° 0 mm 2 mps 757 mmHg 76%
    22:00 +14°C° 0 mm 2 mps 757 mmHg 77%
    23:00 +13°C° 0 mm 2 mps 757 mmHg 77%

    29 August, Thursday

    Time Temperature Precipitation Wind Pressure Humidity
    00:00 +12°C° 0 mm 2 mps 757 mmHg 77%
    01:00 +12°C° 0 mm 2 mps 757 mmHg 76%
    02:00 +10°C° 0 mm 2 mps 757 mmHg 75%
    03:00 +9°C° 0 mm 2 mps 757 mmHg 75%
    04:00 +9°C° 0 mm 2 mps 757 mmHg 74%
    05:00 +9°C° 0 mm 2 mps 757 mmHg 74%
    06:00 +10°C° 0 mm 2 mps 757 mmHg 72%
    07:00 +12°C° 0 mm 2 mps 757 mmHg 70%
    08:00 +12°C° 0 mm 3 mps 757 mmHg 68%
    09:00 +14°C° 0 mm 3 mps 757 mmHg 65%
    10:00 +17°C° 0 mm 3 mps 757 mmHg 61%
    11:00 +18°C° 0 mm 3 mps 757 mmHg 58%
    12:00 +19°C° 0 mm 3 mps 757 mmHg 56%
    13:00 +19°C° 0 mm 3 mps 757 mmHg 54%
    14:00 +20°C° 0 mm 3 mps 756 mmHg 53%
    15:00 +20°C° 0 mm 3 mps 756 mmHg 56%
    16:00 +19°C° 0 mm 3 mps 756 mmHg 59%
    17:00 +19°C° 0 mm 2 mps 756 mmHg 63%
    18:00 +17°C° 0 mm 2 mps 755 mmHg 68%
    19:00 +15°C° 0 mm 2 mps 755 mmHg 73%
    20:00 +13°C° 0 mm 2 mps 755 mmHg 78%
    21:00 +12°C° 0 mm 2 mps 755 mmHg 78%
    22:00 +12°C° 0 mm 2 mps 755 mmHg 79%
    23:00 +10°C° 0 mm 2 mps 755 mmHg 79%

    30 August, Friday

    Time Temperature Precipitation Wind Pressure Humidity
    00:00 +10°C° 0 mm 2 mps 755 mmHg 79%
    01:00 +9°C° 0 mm 2 mps 755 mmHg 79%
    02:00 +9°C° 0 mm 2 mps 755 mmHg 79%
    03:00 +9°C° 0 mm 2 mps 755 mmHg 79%
    04:00 +8°C° 0 mm 2 mps 755 mmHg 79%
    05:00 +8°C° 0 mm 2 mps 755 mmHg 79%
    06:00 +10°C° 0 mm 2 mps 755 mmHg 75%
    07:00 +13°C° 0 mm 2 mps 755 mmHg 71%
    08:00 +13°C° 0 mm 3 mps 755 mmHg 67%
    09:00 +16°C° 0 mm 3 mps 755 mmHg 63%
    10:00 +18°C° 0 mm 3 mps 755 mmHg 59%
    11:00 +19°C° 0 mm 4 mps 755 mmHg 55%
    12:00 +20°C° 0 mm 4 mps 755 mmHg 54%
    13:00 +21°C° 0 mm 4 mps 754 mmHg 52%
    14:00 +21°C° 0 mm 4 mps 754 mmHg 51%
    15:00 +21°C° 0 mm 3 mps 754 mmHg 55%
    16:00 +21°C° 0 mm 3 mps 754 mmHg 59%
    17:00 +20°C° 0 mm 2 mps 754 mmHg 64%
    18:00 +18°C° 0 mm 2 mps 754 mmHg 69%
    19:00 +17°C° 0 mm 2 mps 753 mmHg 74%
    20:00 +15°C° 0 mm 2 mps 753 mmHg 79%
    21:00 +14°C° 0 mm 2 mps 753 mmHg 79%
    22:00 +14°C° 0 mm 2 mps 753 mmHg 80%
    23:00 +13°C° 0 mm 2 mps 754 mmHg 81%
    Show more